Location: G�kdere
(37.0328°N, 30.9000°E)
Time: 22:57:24
(UTC+00:00)

H-2A R/B - Pass Details

Date: 03 March 2021
Orbit: 732 x 837 km, 98.2° (Epoch: 19 April)

Event Time Altitude Azimuth Distance (km) Brightness Sun altitude
Rises 16:17:26 0° 154° (SSE) 3,354 5.1 -5.8°
Reaches altitude 10° 16:19:48 10° 150° (SSE) 2,433 4.3 -6.2°
Maximum altitude 16:25:05 56° 73° (ENE) 995 2.3 -7.3°
Drops below altitude 10° 16:30:24 10° 357° (N) 2,456 4.6 -8.4°
Sets 16:32:48 0° 353° (N) 3,389 5.4 -8.8°
